Regional Weather Roundup
Issued by NWS

Home | Current Version | Previous Version | Graphics & Text | Print | Product List | Glossary On
Versions: 1 2 3 4 5 6 7 8 9 10 11 12 13 14 15 16 17 18 19 20 21 22 23 24 25 26 27 28 29 30 31 32 33 34 35 36 37 38 39 40 41 42 43 44 45 46 47 48 49 50
000
ASUS45 KSLC 040510
RWRUT

UTAH REGIONAL WEATHER ROUNDUP
NATIONAL WEATHER SERVICE SALT LAKE CITY UT
1100 PM MDT SUN MAY 03 2015

UTZ001>011-023>025-040600-

NORTHERN UTAH

CITY           SKY/WX    TMP DP  RH WIND       PRES   REMARKS
BRIGHAM CITY   CLOUDY    60  45  57 CALM      29.90R
HILL AFB       CLOUDY    67  34  29 SE6       29.91R
LOGAN          CLEAR     53  46  77 W7        29.92R
OGDEN          CLOUDY    65  41  41 CALM      29.89R
PROVO AIRPORT  CLOUDY    64  37  36 NE9G16    29.93S
SALT LAKE CITY MOCLDY    65  44  46 E6        29.89R
VERNAL         MOCLDY    56  38  50 CALM      30.00R
WENDOVER       MOCLDY    64  36  34 W8        29.90S
HEBER CITY     CLOUDY    57  37  47 CALM      30.01R
WEST JORDAN    PTCLDY    61  43  51 S9        29.93R

$$

UTZ012>022-026-027-040600-

SOUTHERN/CENTRAL UTAH

CITY           SKY/WX    TMP DP  RH WIND       PRES   REMARKS
BLANDING       MOCLDY    54  39  57 N9        30.08F
BRYCE CANYON   CLOUDY    42  36  79 W6        30.09F
CEDAR CITY     CLOUDY    55  38  52 NW5       30.01R
DELTA          CLOUDY    63  38  39 CALM      29.94S
HANKSVILLE     PTCLDY    63  32  31 S5        29.94R
MILFORD        CLOUDY    61  37  41 S12       29.94R
MOAB/CYNLANDS  CLEAR     62  40  44 NE16      29.92R
PRICE          MOCLDY    53  29  39 N3        29.98S
ST GEORGE      CLOUDY    68  39  34 E14       29.88R
KANAB          CLOUDY    55  43  62 CALM      30.02R

$$

REGIONAL REPORTS     COLORADO/ARIZONA

CITY           SKY/WX    TMP DP  RH WIND       PRES   REMARKS
CRAIG, CO      LGT RAIN  55  39  54 S9        30.09R
GRAND JUNCTION PTCLDY    59  41  51 SE15      30.01R
RIFLE          RAIN      51  47  86 W12       30.10R
MONTROSE       CLOUDY    55  39  54 E7        30.09R
CORTEZ         MOCLDY    53  37  54 E13       30.02F
PAGE, AZ       MOCLDY    64  39  39 CALM      29.95R
GRAND CANYON   MOCLDY    44  39  82 NE3       30.06S
KINGMAN        CLEAR     66  36  32 S9        29.87R
FLAGSTAFF      PTCLDY    44  36  73 CALM      30.10R

$$

REGIONAL REPORTS    NEVADA/IDAHO/WYOMING

CITY           SKY/WX    TMP DP  RH WIND       PRES   REMARKS
LAS VEGAS, NV  PTCLDY    81  25  12 S9        29.72R
ELY            LGT RAIN  60  33  36 E12G28    29.98S
ELKO           MOCLDY    59  34  39 N7        29.92R
POCATELLO, ID  CLEAR     54  39  57 NE9       29.92R
BURLEY         CLOUDY    62  38  40 S15       29.86F
EVANSTON, WY   MOCLDY    47  38  71 E15       30.07R
ROCK SPRINGS   CLOUDY    47  38  71 SE14      30.04F
KEMMERER       PTCLDY    41  39  93 N8        30.10S

$$


USA.gov is the U.S. government's official web portal to all federal, state and local government web resources and services.